Rogers City, MI

3:55 PM EDT on April 21, 2018 (GMT -0400)
Presque Isle County

Weather History for KPZQ - September, 2013

Change the Weather History Date:

Sunday, September 1, 2013

  Actual Average (KAPN) Record (KAPN)
Temperature  
Mean Temperature 66 °F -  
Max Temperature 73 °F 74 °F 99 °F (1953)
Min Temperature 60 °F 50 °F 36 °F (1936)
Cooling Degree Days 2    
Growing Degree Days 16 (Base 50)    
Moisture  
Dew Point 62 °F    
Average Humidity 88    
Maximum Humidity 97    
Minimum Humidity 68    
Precipitation  
Precipitation 0.00 in - - ()
Sea Level Pressure  
Sea Level Pressure 29.80 in    
Wind  
Wind Speed 6 mph (South)    
Max Wind Speed 12 mph    
Max Gust Speed 16 mph    
Visibility 7 miles    
Events Fog    
Averages and records for this station are not official NWS values.
T = Trace of Precipitation, MM = Missing Value Source: NWS Daily Summary

Daily Weather History Graph

Daily Weather History Graph

Search for Another Location

Airport or City:

Astronomy

Sep. 01, 2013 Rise Set
Actual Time 6:57 AM EDT 8:12 PM EDT
Civil Twilight 6:26 AM EDT 8:42 PM EDT
Nautical Twilight 5:49 AM EDT 9:19 PM EDT
Astronomical Twilight 5:10 AM EDT 9:58 PM EDT
Moon 3:11 AM EDT (9/1) 5:54 PM EDT (9/1)
Length of Visible Light 14h 16m
Length of Day
13h 15m
Waning Crescent, 14% of the Moon is Illuminated
Sep 1
Waning Crescent
Sep 5
New
Sep 12
First Quarter
Sep 19
Full
Sep 26
Last Quarter

Hourly Weather History & Observations

Time (EDT) Temp. Dew Point Humidity Pressure Visibility Wind Dir Wind Speed Gust Speed Precip Events Conditions
12:15 AM 63.5 °F 61.2 °F 92% 29.89 in 7.0 mi South 4.6 mph - N/A   Clear
12:35 AM 63.1 °F 61.2 °F 93% 29.89 in 7.0 mi South 5.8 mph - N/A   Clear
12:55 AM 63.5 °F 61.7 °F 94% 29.88 in 7.0 mi SSW 6.9 mph - N/A   Clear
1:15 AM 63.7 °F 61.7 °F 93% 29.87 in 7.0 mi South 9.2 mph - N/A   Clear
1:35 AM 63.5 °F 61.7 °F 94% 29.88 in 5.0 mi SSW 8.1 mph - N/A   Clear
1:55 AM 63.5 °F 61.5 °F 93% 29.87 in 7.0 mi SSW 6.9 mph - N/A   Clear
2:15 AM 63.5 °F 61.3 °F 93% 29.86 in 7.0 mi SSW 8.1 mph - N/A   Clear
2:35 AM 63.1 °F 61.2 °F 93% 29.86 in 5.0 mi SW 8.1 mph - N/A   Clear
2:55 AM 62.8 °F 61.0 °F 94% 29.86 in 5.0 mi South 5.8 mph - N/A   Clear
3:14 AM 62.8 °F 61.0 °F 94% 29.85 in 5.0 mi SSW 5.8 mph - N/A   Clear
3:35 AM 62.8 °F 61.0 °F 94% 29.85 in 5.0 mi SSW 6.9 mph - N/A   Clear
3:55 AM 62.8 °F 61.0 °F 94% 29.84 in 5.0 mi South 5.8 mph - N/A   Clear
4:14 AM 62.1 °F 60.4 °F 94% 29.84 in 1.8 mi SE 4.6 mph - N/A   Mostly Cloudy
4:35 AM 61.7 °F 60.4 °F 96% 29.84 in 1.0 mi SSE 6.9 mph - N/A   Overcast
4:55 AM 61.7 °F 60.3 °F 95% 29.84 in 1.8 mi South 8.1 mph - N/A   Overcast
5:15 AM 61.0 °F 59.9 °F 96% 29.84 in 1.5 mi South 5.8 mph - N/A   Overcast
5:35 AM 61.2 °F 60.1 °F 96% 29.84 in 1.2 mi South 5.8 mph - N/A   Overcast
5:55 AM 60.8 °F 59.9 °F 97% 29.85 in 0.8 mi SSW 3.5 mph - N/A   Overcast
6:15 AM 60.8 °F 59.5 °F 96% 29.84 in 1.0 mi SSE 4.6 mph - N/A   Overcast
6:35 AM 60.8 °F 59.7 °F 96% 29.83 in 1.8 mi South 4.6 mph - N/A   Overcast
6:55 AM 60.8 °F 59.9 °F 97% 29.83 in 1.8 mi SE 8.1 mph - N/A   Overcast
7:15 AM 61.0 °F 60.1 °F 97% 29.82 in 0.2 mi SSE 9.2 mph - N/A Fog Fog
7:35 AM 61.0 °F 60.1 °F 97% 29.82 in 0.2 mi SSE 9.2 mph - N/A Fog Fog
7:54 AM 61.3 °F 60.4 °F 97% 29.82 in 0.2 mi South 4.6 mph - N/A Fog Fog
8:15 AM 61.7 °F 60.8 °F 97% 29.83 in 0.5 mi South 6.9 mph - N/A Fog Fog
8:35 AM 61.7 °F 60.8 °F 97% 29.82 in 0.8 mi South 6.9 mph - N/A   Overcast
8:55 AM 62.2 °F 61.3 °F 97% 29.82 in 0.8 mi SSE 8.1 mph - N/A   Overcast
9:15 AM 62.6 °F 61.7 °F 97% 29.83 in 1.0 mi SSE 5.8 mph - N/A   Overcast
9:35 AM 62.6 °F 61.7 °F 97% 29.84 in 3.0 mi SSE 8.1 mph - N/A   Overcast
9:55 AM 62.8 °F 61.7 °F 96% 29.85 in 5.0 mi SSW 8.1 mph - N/A   Overcast
10:15 AM 63.5 °F 62.1 °F 95% 29.85 in 5.0 mi SSE 6.9 mph - N/A   Overcast
10:35 AM 63.5 °F 62.1 °F 95% 29.85 in 5.0 mi South 6.9 mph - N/A   Overcast
10:55 AM 64.0 °F 62.1 °F 93% 29.84 in 7.0 mi SSE 4.6 mph - N/A   Overcast
11:15 AM 64.9 °F 62.6 °F 92% 29.84 in 7.0 mi South 3.5 mph - N/A   Overcast
11:34 AM 64.9 °F 62.1 °F 90% 29.83 in 7.0 mi SSE 6.9 mph - N/A   Overcast
11:55 AM 65.5 °F 62.1 °F 89% 29.83 in 7.0 mi South 5.8 mph - N/A   Overcast
12:15 PM 66.2 °F 62.6 °F 88% 29.83 in 7.0 mi South 6.9 mph - N/A   Overcast
12:35 PM 67.3 °F 62.6 °F 85% 29.82 in 7.0 mi SSE 9.2 mph - N/A   Overcast
12:55 PM 68.2 °F 62.4 °F 82% 29.82 in 10.0 mi SSE 9.2 mph - N/A   Overcast
1:15 PM 69.1 °F 62.4 °F 79% 29.81 in 10.0 mi SSE 6.9 mph - N/A   Overcast
1:35 PM 69.8 °F 62.4 °F 77% 29.80 in 10.0 mi SSE 6.9 mph - N/A   Overcast
1:55 PM 71.1 °F 63.0 °F 75% 29.80 in 10.0 mi South 4.6 mph - N/A   Mostly Cloudy
2:15 PM 71.2 °F 62.8 °F 75% 29.80 in 10.0 mi South 4.6 mph - N/A   Overcast
2:34 PM 70.9 °F 62.2 °F 74% 29.80 in 10.0 mi South 5.8 mph - N/A   Mostly Cloudy
2:55 PM 71.1 °F 62.8 °F 75% 29.81 in 10.0 mi WSW 5.8 mph - N/A   Mostly Cloudy
3:15 PM 71.6 °F 62.8 °F 74% 29.81 in 10.0 mi SSW 3.5 mph - N/A   Scattered Clouds
3:34 PM 71.8 °F 62.4 °F 72% 29.80 in 10.0 mi WSW 4.6 mph - N/A   Clear
3:55 PM 71.2 °F 62.6 °F 74% 29.79 in 10.0 mi South 4.6 mph - N/A   Scattered Clouds
4:15 PM 70.5 °F 64.6 °F 81% 29.76 in 10.0 mi East 5.8 mph - N/A   Scattered Clouds
4:35 PM 70.7 °F 64.6 °F 81% 29.74 in 10.0 mi East 9.2 mph - N/A   Scattered Clouds
4:55 PM 71.6 °F 65.3 °F 80% 29.75 in 10.0 mi East 8.1 mph - N/A   Mostly Cloudy
5:15 PM 72.5 °F 64.4 °F 76% 29.73 in 10.0 mi SE 5.8 mph - N/A   Mostly Cloudy
5:35 PM 73.4 °F 62.2 °F 68% 29.72 in 10.0 mi SSE 8.1 mph - N/A   Scattered Clouds
5:55 PM 73.2 °F 62.8 °F 70% 29.73 in 10.0 mi SE 5.8 mph - N/A   Scattered Clouds
6:15 PM 72.0 °F 64.6 °F 77% 29.72 in 10.0 mi SSE 9.2 mph - N/A   Scattered Clouds
6:35 PM 71.6 °F 64.9 °F 79% 29.72 in 10.0 mi SSE 8.1 mph - N/A   Clear
6:55 PM 72.5 °F 65.7 °F 79% 29.72 in 10.0 mi SSE 8.1 mph - N/A   Clear
7:14 PM 71.8 °F 65.5 °F 80% 29.72 in 10.0 mi SE 9.2 mph - N/A   Clear
7:35 PM 71.1 °F 65.3 °F 82% 29.71 in 10.0 mi SSE 11.5 mph - N/A   Clear
7:54 PM 70.0 °F 64.8 °F 83% 29.70 in 10.0 mi South 10.4 mph - N/A   Clear
8:15 PM 69.1 °F 64.6 °F 86% 29.71 in 10.0 mi South 5.8 mph - N/A   Clear
8:35 PM 68.5 °F 64.6 °F 87% 29.72 in 10.0 mi SSW 5.8 mph - N/A   Clear
8:55 PM 68.0 °F 64.6 °F 89% 29.73 in 10.0 mi South 4.6 mph - N/A   Scattered Clouds
9:15 PM 68.5 °F 65.3 °F 89% 29.73 in 10.0 mi South 4.6 mph - N/A   Overcast
9:35 PM 68.0 °F 64.8 °F 89% 29.72 in 10.0 mi South 5.8 mph - N/A   Overcast
9:55 PM 67.5 °F 64.6 °F 90% 29.72 in 10.0 mi SSW 4.6 mph - N/A   Scattered Clouds
10:15 PM 67.1 °F 64.4 °F 91% 29.72 in 10.0 mi SSW 3.5 mph - N/A   Scattered Clouds
10:34 PM 66.7 °F 63.9 °F 90% 29.73 in 10.0 mi SW 4.6 mph - N/A   Scattered Clouds
10:55 PM 68.5 °F 64.0 °F 85% 29.74 in 10.0 mi West 6.9 mph 16.1 mph N/A   Mostly Cloudy
11:15 PM 68.2 °F 63.5 °F 85% 29.75 in 10.0 mi West 8.1 mph - N/A   Overcast
11:34 PM 67.5 °F 63.0 °F 85% 29.74 in 10.0 mi WNW 5.8 mph - N/A   Overcast
11:55 PM 67.1 °F 62.6 °F 85% 29.75 in 10.0 mi WNW 8.1 mph - N/A   Overcast